www.pogodaiklimat.ru

Погода и климат >> Архив погоды >> Китай >> Цзяньси >> Лушань


ПОГОДА в Лушане

  • Прогноз погоды в Лушане
  • Монитор погоды в Лушане

АРХИВ ПОГОДЫ в Лушане

Время (UTC), дата Ветер
(напр.,м/с)
 
Видим.   Явления Облачность Т
(С)
Тd
(С)
f
(%)
Тe
(С)
Тes
(С)
Комфортность P
(гПа)
Po
(гПа)
Тmin
(С)
Tmax
(С)
R
(мм)
R24
(мм)
S
(см)
18 14.07 Ю 4 18 км ?/? +17.0 +16.0 94 +17 +17 1004.4 875.6 +22.2
21 14.07 СВ 1 3200 м слаб. дождь н/о +16.9 +16.6 98 +18 +18 1005.0 876.1
00 15.07 С 2 700 м слаб. дождь ?/? +18.0 +18.0 100 +19 +19 1006.8 878.1 5
03 15.07 СВ 2 1000 м в посл. час туман {дождь} н/о +20.0 +19.3 96 +24 +24 комфорт 1006.9 879.0
06 15.07 С 1 300 м слаб. дождь {туман} ?/? +20.0 +19.0 94 +24 +24 комфорт 1006.5 878.7 +16.8 3
09 15.07 С 2 2300 м в посл. час туман {дождь} н/о +20.7 +19.7 94 +26 +26 душно 1005.7 878.3
12 15.07 штиль 0 18 км {дождь, туман} 9/9 100 м
[]
+19.1 +18.1 94 +21 +21 комфорт 1006.9 878.7 0.7
18 15.07 штиль 0 23 км ?/? +18.4 +18.1 98 +19 +19 1007.1 880.0 +20.9 0.4
21 15.07 ЮЗ 3 22 км н/о +18.6 +17.6 94 +20 +20 1007.1 878.6
00 16.07 Ю 1 21 км 9/9 200 м
[]
+20.3 +19.1 93 +25 +26 комфорт 1008.1 880.2 0.2
03 16.07 Ю 1 17 км 9/9 200 м
[]
+22.6 +20.3 87 +29 +32 очень
душно
1008.0 881.0
06 16.07 З 1 16 км 9/9 200 м
[]
+22.8 +20.3 86 +30 +32 очень
душно
1006.8 880.1 +17.9
09 16.07 СВ 1 14 км 9/9 200 м
[]
+22.6 +20.1 86 +29 +30 очень
душно
1006.3 879.6
12 16.07 В 3 18 км 9/9 300 м
[]
+21.5 +17.3 77 +26 +26 душно 1007.1 879.8
18 16.07 Ю 3 21 км ?/? +20.9 +18.1 84 +25 +25 комфорт 1005.4 878.1 +25.7
21 16.07 Ю 3 17 км н/о +20.6 +19.3 92 +25 +25 комфорт 1005.7 878.2
00 17.07 ЮЗ 1 15 км 9/9 300 м
[]
+22.4 +20.3 88 +29 +30 очень
душно
1006.4 879.6
03 17.07 З 1 3000 м дымка 9/9
[]
+22.3 +20.9 92 +29 +31 очень
душно
1006.8 879.9
06 17.07 Ю 1 1100 м дождь ?/? +22.1 +21.3 95 +29 +29 очень
душно
1005.6 878.7 +20.4 12
09 17.07 Ю 1 9000 м {дождь} 10/10 300 м
[]
+22.8 +21.8 94 +31 +31 очень
душно
1004.6 878.1
12 17.07 С 2 17 км {дождь, туман} 9/9
[]
+21.6 +20.2 92 +27 +27 душно 1005.3 878.3 6
18 17.07 В 2 11 км ?/? +20.5 +19.5 94 +25 +25 комфорт 1004.1 876.8 +24.3
21 17.07 С 1 20 км н/о +20.3 +18.1 87 +25 +25 комфорт 1003.9 876.5
00 18.07 С 2 18 км 4/4 300 м
[]
+25.8 +21.5 77 +33 +37 очень
душно
1003.2 878.1
03 18.07 С 3 9000 м 6/6 200 м
[]
+27.7 +22.9 75 +37 +43 очень
душно
1002.3 878.1
06 18.07 С 3 10 км 9/9 200 м
[]
+24.7 +22.2 86 +32 +34 очень
душно
1002.4 877.0 +20.0
09 18.07 СВ 8 4200 м дымка 9/9
[]
+21.2 +20.5 96 +26 +26 душно 1002.4 875.6
12 18.07 В 10 800 м в посл. час туман ?/? +20.5 +20.5 100 +24 +24 комфорт 1002.0 875.0
18 18.07 СВ 8 100 м туман ?/? +20.0 +20.0 100 +23 +23 комфорт 1001.3 874.1 +28.3
21 18.07 С 6 100 м слаб. дождь н/о +19.6 +19.6 100 +22 +22 комфорт 1002.3 874.8
00 19.07 С 6 200 м слаб. дождь ?/? +19.7 +19.7 100 +22 +22 комфорт 1003.4 875.9 4
03 19.07 С 4 8000 м {дождь, туман} 9/9 100 м
[]
+22.3 +21.3 94 +29 +30 очень
душно
1003.5 877.0
06 19.07 С 4 12 км {дождь, туман} 8/8 100 м
[]
+25.7 +20.9 75 +32 +35 очень
душно
1002.5 877.5 +19.3 0.2
09 19.07 С 4 8000 м 9/9 100 м
[]
+23.1 +21.2 89 +31 +31 очень
душно
1002.3 876.3
12 19.07 В 5 7000 м слаб. дождь ?/? +19.8 +19.1 96 +23 +23 комфорт 1004.4 876.8 0.0
18 19.07 В 2 17 км в посл. час дождь ?/? +20.0 +18.0 88 +24 +24 комфорт 1003.5 876.1 +26.3 0.7
21 19.07 СВ 1 15 км н/о +20.2 +18.0 87 +25 +25 комфорт 1004.5 877.0
00 20.07 С 2 15 км 9/9 1000 м
[]
+24.3 +20.4 79 +30 +31 очень
душно
1005.7 879.7 0.7
03 20.07 С 2 н/о дымка 9/9
[]
+23.8 +21.3 86 +30 +32 очень
душно
1006.2 879.9
06 20.07 С 2 7000 м 9/9 300 м
[]
+23.2 +21.5 90 +31 +33 очень
душно
1005.3 878.9 +19.1
09 20.07 С 2 12 км 9/9 300 м
[]
+24.8 +21.3 81 +31 +32 очень
душно
1004.5 878.9
12 20.07 СВ 1 13 км 9/9
[]
+21.4 +19.0 86 +26 +26 душно 1004.8 877.8
18 20.07 Ю 1 14 км ?/? +21.0 +19.1 89 +27 +27 душно 1005.3 878.0 +26.4
21 20.07 Ю 2 13 км н/о +20.4 +19.4 94 +25 +25 комфорт 1005.0 877.5
00 21.07 Ю 1 14 км 9/9 300 м
[]
+23.1 +20.1 83 +30 +31 очень
душно
1006.6 880.0
03 21.07 Ю 1 н/о слаб. дождь н/о +21.8 +20.6 93 +28 +28 душно 1007.4 880.2
06 21.07 В 1 8000 м {дождь} 10/10 300 м
[]
+25.0 +22.3 85 +33 +33 очень
душно
1005.5 879.8 +20.3 5
09 21.07 штиль 0 12 км {дождь} 9/9 300 м
[]
+23.3 +21.7 91 +32 +32 очень
душно
1004.9 878.6
12 21.07 ЮВ 1 19 км {дождь} 9/9
[]
+22.1 +18.7 81 +27 +27 душно 1005.3 878.5 0.4

 

Местоположение метеостанции Лушань (Цзяньси, Китай): широта 29.58 долгота 115.98 высота над уровнем моря 1165 м.

В архиве по умолчанию представлена погода в Лушане за последнюю неделю. Архивные данные за месяц целиком и за предыдущие месяцы, начиная с января 2011 года, Вы можете получить, выбрав интересующий диапазон дат из раскрывающегося списка и нажав кнопку "Ввод!".


*Определитесь, кто Вы:
робот инопланетянин человек

Внимание! Время в таблицах - всемирное. Для получения местного времени необходимо прибавить поправку, которая равна 8 ч.

Смотрите также архив погоды в соседних городах и на ближайших метеорологических станциях:

Погода в Наньчане (Цзяньси, Китай) (109 км)
Погода в Цзиндэчжэне (Цзяньси, Китай) (122 км)
Погода в Аньцине (Аньхой, Китай) (148 км)
Погода в Сьюши (Цзяньси, Китай) (149 км)
Погода в Мачэне (Хубэй, Китай) (203 км)
Погода в Хушане (Аньхой, Китай) (205 км)
Погода в Ухани (Хубэй, Китай) (212 км)
Погода на Хуаншане (Аньхой, Китай) (218 км)
Погода в Наньчене (Цзяньси, Китай) (232 км)
Погода в Ичуне (Хэйлунцзян, Китай) (252 км)

Пояснения к столбцам:

Ветер - указаны скорость ветра в м/с - средняя за 10 мин, порывы в срок и между сроками (в фигурных скобках) и направление, откуда дует ветер: С - северный, СВ - северо-восточный, В - восточный, ЮВ - юго-восточный, Ю - южный, ЮЗ - юго-западный, З - западный, СЗ - северо-западный.
Видимость - горизонтальная дальность видимости в метрах или километрах. При видимости от 1 до 10 км при отсутствии осадков обычно наблюдается дымка, при ухудшении видимости до 1 км и менее - туман. В сухую погоду видимость может ухудшаться дымом, пылью или мглою.
Явления - указаны атмосферные явления, наблюдавшиеся в срок или в последний час перед сроком; фигурными скобками обозначены явления, наблюдавшиеся между сроками (за 1-3 часа до срока); квадратными скобками обозначены град или гололедные отложения с указанием их диаметра в мм.
Облачность - указаны через наклонную черту общая и нижняя облачность в баллах и высота нижней границы облаков в метрах; квадратными скобками обозначены формы облаков: Ci - перистые, Cs - перисто-слоистые, Cc - перисто-кучевые, Ac - высококучевые, As - высокослоистые, Sc - слоисто-кучевые, Ns - слоисто-дождевые, Cu - кучевые, Cb - кучево-дождевые. Подробнее классификацию облаков см. в Атласе облаков (PDF).
T - Температура воздуха - температура, измеренная на высоте 2 м над землей.
Td - Температура точки росы - температура, при понижении до которой содержащийся в воздухе водяной пар достигнет насыщения.
f - Относительная влажность воздуха - влажноcть воздуха, измеренная на высоте 2 м над землей.
Te - Эффективная температура - температура, которую ощущает одетый по сезону человек в тени. Характеристика душности погоды. При расчете учитывается влияние влажности воздуха и скорости ветра на теплоощущения человека.
Tes - Эффективная температура на солнце - температура, которую ощущает человек, с поправкой на солнечный нагрев. Характеристика знойности погоды. Зависит от высоты солнца над горизонтом, облачности и скорости ветра. Ночью, в пасмурную погоду, а также при ветре 12 м/с и более поправка равна нулю.
P - Атмосферное давление - приведенное к уровню моря атмосферное давление.
Po - Атмосферное давление - измеренное на уровне метеостанции атмосферное давление.
Tmin - Минимальная температура - минимум температуры воздуха на высоте 2 м над землей.
Tmax - Максимальная температура - максимум температуры воздуха на высоте 2 м над землей.
R - Количество осадков - Количество выпавших осадков за период времени, мм. При наведении курсора мыши на число - период времени, за который выпало указанное количество осадков.
R24 - Количество осадков - Количество выпавших осадков за 24 часа, мм.
S - Снежный покров - Высота снежного покрова, см. При наведении курсора мыши на число - состояние снежного покрова и степень покрытия местности в баллах.